Location: Haram ta Haram Freeway
(35.0583°N, 51.4202°E)
Time: 13:45:35
(UTC+04:30)

Hubble Space Telescope - Visible Passes

Search period start: 15 May 2021 00:00
Search period end: 25 May 2021 00:00
Orbit: 535 x 539 km, 28.5° (Epoch: 14 May)

Date Brightness Start Highest point End Pass type
(mag) Time Alt. Az. Time Alt. Az. Time Alt. Az.
20 May 3.1 04:51:35 10° S 04:52:46 11° SSE 04:53:57 10° SE visible
21 May 2.9 04:40:15 12° S 04:41:44 14° SSE 04:43:48 10° SE visible
22 May 2.6 04:29:47 15° S 04:30:41 16° SSE 04:33:17 10° ESE visible
23 May 2.4 04:19:17 19° S 04:19:39 19° SSE 04:22:36 10° ESE visible
24 May 2.3 04:08:47 22° SSE 04:08:47 22° SSE 04:11:50 10° ESE visible
